Time,TemperatureF,DewpointF,PressureIn,WindDirection,WindDirectionDegrees,WindSpeedMPH,WindSpeedGustMPH,Humidity,HourlyPrecipIn,Conditions,Clouds,dailyrainin,SoftwareType,DateUTC
2013-01-15 00:00:00,26.5,7.3,30.18,NW,315,4.9,4.9,43,0.00,,,0.00,tws,2013-01-15 07:00:00,
2013-01-15 00:10:00,26.7,7.5,30.18,NNW,337,2.3,5.7,43,0.00,,,0.00,tws,2013-01-15 07:10:00,
2013-01-15 00:20:00,26.6,7.2,30.17,NW,315,3.8,4.8,43,0.00,,,0.00,tws,2013-01-15 07:20:00,
2013-01-15 00:30:00,26.4,6.8,30.17,NW,315,3.0,4.0,43,0.00,,,0.00,tws,2013-01-15 07:30:00,
2013-01-15 00:40:00,26.2,6.7,30.18,NW,315,2.5,3.5,43,0.00,,,0.00,tws,2013-01-15 07:40:00,
2013-01-15 00:50:00,26.1,6.9,30.17,West,270,2.3,3.1,43,0.00,,,0.00,tws,2013-01-15 07:50:00,
2013-01-15 01:00:00,26.1,6.7,30.17,WSW,247,0.3,1.4,43,0.00,,,0.00,tws,2013-01-15 08:00:00,
2013-01-15 01:10:00,26.1,6.7,30.17,NW,315,0.3,1.4,43,0.00,,,0.00,tws,2013-01-15 08:10:00,
2013-01-15 01:20:00,26.0,6.5,30.18,East,90,0.0,0.0,43,0.00,,,0.00,tws,2013-01-15 08:20:00,
2013-01-15 01:30:00,25.7,6.9,30.19,North,0,0.0,0.0,44,0.00,,,0.00,tws,2013-01-15 08:30:00,
2013-01-15 01:40:00,25.3,7.2,30.20,North,0,0.0,0.0,45,0.00,,,0.00,tws,2013-01-15 08:40:00,
2013-01-15 01:50:00,24.9,7.1,30.19,NW,315,0.0,0.0,46,0.00,,,0.00,tws,2013-01-15 08:50:00,
2013-01-15 02:00:00,24.4,7.0,30.20,NW,315,0.0,0.0,47,0.00,,,0.00,tws,2013-01-15 09:00:00,
2013-01-15 02:10:00,24.0,7.2,30.20,NW,315,0.0,0.0,48,0.00,,,0.00,tws,2013-01-15 09:10:00,
2013-01-15 02:20:00,23.7,7.2,30.19,NW,315,0.0,0.0,49,0.00,,,0.00,tws,2013-01-15 09:20:00,
2013-01-15 02:30:00,23.6,7.4,30.21,NW,315,0.0,0.0,49,0.00,,,0.00,tws,2013-01-15 09:30:00,
2013-01-15 02:40:00,23.4,7.7,30.21,North,0,0.0,0.0,50,0.00,,,0.00,tws,2013-01-15 09:40:00,
2013-01-15 02:50:00,23.4,7.9,30.21,NW,315,0.0,0.0,51,0.00,,,0.00,tws,2013-01-15 09:50:00,
2013-01-15 03:00:00,23.3,7.9,30.21,NW,315,0.0,0.0,51,0.00,,,0.00,tws,2013-01-15 10:00:00,
2013-01-15 03:10:00,23.3,8.0,30.22,SW,225,0.0,0.0,51,0.00,,,0.00,tws,2013-01-15 10:10:00,
2013-01-15 03:20:00,23.3,8.0,30.22,SW,225,0.0,0.0,51,0.00,,,0.00,tws,2013-01-15 10:20:00,
2013-01-15 03:30:00,23.4,8.2,30.22,SW,225,0.0,0.0,51,0.00,,,0.00,tws,2013-01-15 10:30:00,
2013-01-15 03:40:00,23.5,8.3,30.22,SW,225,0.0,0.0,51,0.00,,,0.00,tws,2013-01-15 10:40:00,
2013-01-15 03:50:00,23.8,8.5,30.22,SE,135,0.0,0.0,51,0.00,,,0.00,tws,2013-01-15 10:50:00,
2013-01-15 04:00:00,23.9,8.6,30.22,North,0,0.0,0.0,51,0.00,,,0.00,tws,2013-01-15 11:00:00,
2013-01-15 04:10:00,23.6,8.4,30.24,NNE,22,0.0,0.0,51,0.00,,,0.00,tws,2013-01-15 11:10:00,
2013-01-15 04:20:00,23.2,8.1,30.22,North,0,0.0,0.0,52,0.00,,,0.00,tws,2013-01-15 11:20:00,
2013-01-15 04:30:00,22.8,8.2,30.23,North,0,0.0,0.0,53,0.00,,,0.00,tws,2013-01-15 11:30:00,
2013-01-15 04:40:00,22.4,8.1,30.23,NNW,337,0.0,0.0,53,0.00,,,0.00,tws,2013-01-15 11:40:00,
2013-01-15 04:50:00,22.0,8.3,30.24,North,0,0.0,0.0,55,0.00,,,0.00,tws,2013-01-15 11:50:00,
2013-01-15 05:00:00,21.8,8.3,30.24,NW,315,0.0,0.0,55,0.00,,,0.00,tws,2013-01-15 12:00:00,
2013-01-15 05:10:00,21.7,8.5,30.24,NNW,337,0.0,0.0,56,0.00,,,0.00,tws,2013-01-15 12:10:00,
2013-01-15 05:20:00,21.7,8.7,30.25,West,270,0.0,0.0,57,0.00,,,0.00,tws,2013-01-15 12:20:00,
2013-01-15 05:30:00,21.7,9.0,30.24,ENE,67,0.0,0.0,57,0.00,,,0.00,tws,2013-01-15 12:30:00,
2013-01-15 05:40:00,21.7,9.1,30.24,NNE,22,0.0,0.0,57,0.00,,,0.00,tws,2013-01-15 12:40:00,
2013-01-15 05:50:00,21.7,9.3,30.24,North,0,0.0,0.0,58,0.00,,,0.00,tws,2013-01-15 12:50:00,
2013-01-15 06:00:00,21.6,9.1,30.24,SSE,157,0.0,0.0,58,0.00,,,0.00,tws,2013-01-15 13:00:00,
2013-01-15 06:10:00,21.5,9.1,30.24,NW,315,1.2,4.4,58,0.00,,,0.00,tws,2013-01-15 13:10:00,
2013-01-15 06:20:00,22.0,9.0,30.24,WNW,292,4.6,5.9,57,0.00,,,0.00,tws,2013-01-15 13:20:00,
2013-01-15 06:30:00,23.4,9.5,30.25,WNW,292,4.7,5.9,55,0.00,,,0.00,tws,2013-01-15 13:30:00,
2013-01-15 06:40:00,24.8,9.7,30.26,SW,225,4.0,5.9,52,0.00,,,0.00,tws,2013-01-15 13:40:00,
2013-01-15 06:50:00,25.7,9.5,30.26,NE,45,2.7,4.7,49,0.00,,,0.00,tws,2013-01-15 13:50:00,
2013-01-15 07:00:00,25.8,9.3,30.26,East,90,0.0,0.0,49,0.00,,,0.00,tws,2013-01-15 14:00:00,
2013-01-15 07:10:00,25.1,8.9,30.27,South,180,0.0,0.0,50,0.00,,,0.00,tws,2013-01-15 14:10:00,
2013-01-15 07:20:00,24.1,8.6,30.26,SW,225,0.0,0.0,51,0.00,,,0.00,tws,2013-01-15 14:20:00,
2013-01-15 07:30:00,23.3,8.3,30.26,NW,315,0.0,0.0,52,0.00,,,0.00,tws,2013-01-15 14:30:00,
2013-01-15 07:40:00,22.9,8.6,30.27,SW,225,0.0,0.0,53,0.00,,,0.00,tws,2013-01-15 14:40:00,
2013-01-15 07:50:00,22.7,8.4,30.28,NE,45,0.1,1.0,53,0.00,,,0.00,tws,2013-01-15 14:50:00,
2013-01-15 08:00:00,22.9,8.7,30.28,NE,45,0.0,0.0,54,0.00,,,0.00,tws,2013-01-15 15:00:00,
2013-01-15 08:10:00,23.1,8.8,30.29,ENE,67,0.0,0.0,54,0.00,,,0.00,tws,2013-01-15 15:10:00,
2013-01-15 08:20:00,23.2,9.2,30.29,West,270,0.0,0.0,54,0.00,,,0.00,tws,2013-01-15 15:20:00,
2013-01-15 08:30:00,23.7,9.7,30.30,North,0,1.1,5.1,54,0.00,,,0.00,tws,2013-01-15 15:30:00,
2013-01-15 08:40:00,25.2,10.1,30.31,WSW,247,3.6,8.5,52,0.00,,,0.00,tws,2013-01-15 15:40:00,
2013-01-15 08:50:00,27.3,10.4,30.31,West,270,6.3,9.8,48,0.00,,,0.00,tws,2013-01-15 15:50:00,
2013-01-15 09:00:00,29.4,10.3,30.31,SW,225,8.2,11.2,44,0.00,,,0.00,tws,2013-01-15 16:00:00,
2013-01-15 09:10:00,31.2,10.0,30.31,WNW,292,8.7,10.1,40,0.00,,,0.00,tws,2013-01-15 16:10:00,
2013-01-15 09:20:00,33.4,10.0,30.31,WNW,292,9.3,11.1,37,0.00,,,0.00,tws,2013-01-15 16:20:00,
2013-01-15 09:30:00,34.7,9.9,30.32,NW,315,7.6,10.5,35,0.00,,,0.00,tws,2013-01-15 16:30:00,
2013-01-15 09:40:00,34.8,8.8,30.31,West,270,9.8,13.5,33,0.00,,,0.00,tws,2013-01-15 16:40:00,
2013-01-15 09:50:00,34.8,7.4,30.31,NW,315,11.9,15.1,31,0.00,,,0.00,tws,2013-01-15 16:50:00,
2013-01-15 10:00:00,35.3,6.9,30.32,WNW,292,10.7,14.6,30,0.00,,,0.00,tws,2013-01-15 17:00:00,
2013-01-15 10:10:00,36.2,6.9,30.31,NW,315,11.9,14.5,29,0.00,,,0.00,tws,2013-01-15 17:10:00,
2013-01-15 10:20:00,36.8,6.5,30.31,WSW,247,10.7,12.9,27,0.00,,,0.00,tws,2013-01-15 17:20:00,
2013-01-15 10:30:00,37.4,6.5,30.31,NW,315,9.9,12.7,27,0.00,,,0.00,tws,2013-01-15 17:30:00,
2013-01-15 10:40:00,38.5,7.4,30.31,NNW,337,7.3,9.7,27,0.00,,,0.00,tws,2013-01-15 17:40:00,
2013-01-15 10:50:00,39.5,7.8,30.31,West,270,7.6,13.6,26,0.00,,,0.00,tws,2013-01-15 17:50:00,
2013-01-15 11:00:00,39.7,7.2,30.31,NW,315,9.9,11.8,25,0.00,,,0.00,tws,2013-01-15 18:00:00,
2013-01-15 11:10:00,39.4,6.4,30.30,NW,315,9.2,11.4,25,0.00,,,0.00,tws,2013-01-15 18:10:00,
2013-01-15 11:20:00,39.3,6.3,30.29,SW,225,8.7,11.1,25,0.00,,,0.00,tws,2013-01-15 18:20:00,
2013-01-15 11:30:00,39.5,6.3,30.29,WNW,292,9.7,12.5,24,0.00,,,0.00,tws,2013-01-15 18:30:00,
2013-01-15 11:40:00,39.8,5.8,30.29,West,270,9.8,12.9,24,0.00,,,0.00,tws,2013-01-15 18:40:00,
2013-01-15 11:50:00,39.8,5.4,30.29,WNW,292,9.3,11.8,23,0.00,,,0.00,tws,2013-01-15 18:50:00,
2013-01-15 12:00:00,40.2,5.4,30.28,West,270,8.6,10.7,23,0.00,,,0.00,tws,2013-01-15 19:00:00,
2013-01-15 12:10:00,40.5,5.5,30.27,West,270,9.8,11.4,23,0.00,,,0.00,tws,2013-01-15 19:10:00,
2013-01-15 12:20:00,40.7,5.2,30.27,WNW,292,8.5,9.6,22,0.00,,,0.00,tws,2013-01-15 19:20:00,
2013-01-15 12:30:00,40.9,4.9,30.25,NW,315,8.3,10.0,22,0.00,,,0.00,tws,2013-01-15 19:30:00,
2013-01-15 12:40:00,41.2,4.9,30.26,SSW,202,9.7,13.4,21,0.00,,,0.00,tws,2013-01-15 19:40:00,
2013-01-15 12:50:00,41.5,5.0,30.27,WNW,292,9.1,12.8,21,0.00,,,0.00,tws,2013-01-15 19:50:00,
2013-01-15 13:00:00,42.0,4.9,30.26,SW,225,10.0,11.8,21,0.00,,,0.00,tws,2013-01-15 20:00:00,
2013-01-15 13:10:00,41.9,3.9,30.25,WNW,292,10.2,14.2,20,0.00,,,0.00,tws,2013-01-15 20:10:00,
2013-01-15 13:20:00,42.0,4.3,30.24,WNW,292,10.7,13.3,20,0.00,,,0.00,tws,2013-01-15 20:20:00,
2013-01-15 13:30:00,42.3,4.5,30.25,WNW,292,10.8,12.7,20,0.00,,,0.00,tws,2013-01-15 20:30:00,
2013-01-15 13:40:00,42.7,4.8,30.25,West,270,10.0,12.9,20,0.00,,,0.00,tws,2013-01-15 20:40:00,
2013-01-15 13:50:00,43.0,4.4,30.24,NW,315,11.4,13.4,20,0.00,,,0.00,tws,2013-01-15 20:50:00,
2013-01-15 14:00:00,43.2,4.5,30.25,NW,315,10.2,12.3,19,0.00,,,0.00,tws,2013-01-15 21:00:00,
2013-01-15 14:10:00,43.8,5.1,30.24,NW,315,9.8,12.9,19,0.00,,,0.00,tws,2013-01-15 21:10:00,
2013-01-15 14:20:00,44.2,5.0,30.24,WNW,292,10.5,13.3,19,0.00,,,0.00,tws,2013-01-15 21:20:00,
2013-01-15 14:30:00,44.7,5.1,30.24,NW,315,10.3,11.9,19,0.00,,,0.00,tws,2013-01-15 21:30:00,
2013-01-15 14:50:00,45.5,5.4,30.24,West,270,9.4,15.0,18,0.00,,,0.00,tws,2013-01-15 21:50:00,
2013-01-15 15:00:00,46.0,5.2,30.24,NW,315,11.5,15.5,18,0.00,,,0.00,tws,2013-01-15 22:00:00,
2013-01-15 15:10:00,46.0,5.2,30.22,WNW,292,13.1,14.7,18,0.00,,,0.00,tws,2013-01-15 22:10:00,
2013-01-15 15:20:00,46.3,5.7,30.22,NW,315,11.2,14.6,18,0.00,,,0.00,tws,2013-01-15 22:20:00,
2013-01-15 15:30:00,46.6,6.2,30.23,West,270,13.4,16.2,18,0.00,,,0.00,tws,2013-01-15 22:30:00,
2013-01-15 15:40:00,46.8,6.4,30.23,West,270,11.9,15.8,18,0.00,,,0.00,tws,2013-01-15 22:40:00,
2013-01-15 15:50:00,47.3,6.6,30.23,West,270,13.9,17.5,18,0.00,,,0.00,tws,2013-01-15 22:50:00,
2013-01-15 16:00:00,47.3,6.1,30.22,WNW,292,14.5,16.1,18,0.00,,,0.00,tws,2013-01-15 23:00:00,
2013-01-15 16:10:00,47.0,5.8,30.22,NW,315,14.3,18.2,18,0.00,,,0.00,tws,2013-01-15 23:10:00,
2013-01-15 16:20:00,46.4,5.7,30.22,WNW,292,12.7,16.1,18,0.00,,,0.00,tws,2013-01-15 23:20:00,
2013-01-15 16:30:00,45.9,5.7,30.23,WSW,247,11.8,15.2,18,0.00,,,0.00,tws,2013-01-15 23:30:00,
2013-01-15 16:40:00,45.7,6.0,30.24,West,270,10.5,14.4,19,0.00,,,0.00,tws,2013-01-15 23:40:00,
2013-01-15 16:50:00,45.4,6.1,30.25,WSW,247,8.0,13.8,19,0.00,,,0.00,tws,2013-01-15 23:50:00,
2013-01-15 17:00:00,44.9,6.2,30.26,South,180,6.7,8.7,20,0.00,,,0.00,tws,2013-01-16 00:00:00,
2013-01-15 17:10:00,44.4,6.2,30.27,NNW,337,5.1,9.0,20,0.00,,,0.00,tws,2013-01-16 00:10:00,
2013-01-15 17:20:00,44.0,6.7,30.25,NW,315,5.2,9.2,21,0.00,,,0.00,tws,2013-01-16 00:20:00,
2013-01-15 17:30:00,43.6,6.8,30.24,East,90,3.1,7.1,21,0.00,,,0.00,tws,2013-01-16 00:30:00,
2013-01-15 17:40:00,43.1,6.6,30.25,SE,135,2.1,5.0,21,0.00,,,0.00,tws,2013-01-16 00:40:00,
2013-01-15 17:50:00,42.7,6.3,30.27,SW,225,0.7,1.4,21,0.00,,,0.00,tws,2013-01-16 00:50:00,
2013-01-15 18:00:00,42.2,6.1,30.26,West,270,1.4,3.7,22,0.00,,,0.00,tws,2013-01-16 01:00:00,
2013-01-15 18:10:00,41.8,6.1,30.26,SE,135,1.6,3.9,22,0.00,,,0.00,tws,2013-01-16 01:10:00,
2013-01-15 18:20:00,41.2,6.3,30.27,NE,45,0.5,1.9,23,0.00,,,0.00,tws,2013-01-16 01:20:00,
2013-01-15 18:30:00,40.6,6.5,30.27,NW,315,0.3,3.1,24,0.00,,,0.00,tws,2013-01-16 01:30:00,
2013-01-15 18:40:00,40.0,6.6,30.28,WNW,292,0.2,1.9,24,0.00,,,0.00,tws,2013-01-16 01:40:00,
2013-01-15 18:50:00,39.5,6.3,30.29,NW,315,0.0,0.0,24,0.00,,,0.00,tws,2013-01-16 01:50:00,
2013-01-15 19:00:00,39.0,6.4,30.28,NW,315,3.0,7.0,25,0.00,,,0.00,tws,2013-01-16 02:00:00,
2013-01-15 19:10:00,39.2,6.3,30.29,WNW,292,3.2,6.8,25,0.00,,,0.00,tws,2013-01-16 02:10:00,
2013-01-15 19:20:00,39.7,6.8,30.29,WSW,247,2.9,4.1,25,0.00,,,0.00,tws,2013-01-16 02:20:00,
2013-01-15 19:30:00,39.6,6.7,30.29,ESE,112,0.9,3.5,25,0.00,,,0.00,tws,2013-01-16 02:30:00,
2013-01-15 19:40:00,39.1,6.2,30.29,South,180,0.8,2.3,25,0.00,,,0.00,tws,2013-01-16 02:40:00,
2013-01-15 19:50:00,38.1,6.0,30.29,SW,225,1.6,3.2,25,0.00,,,0.00,tws,2013-01-16 02:50:00,
2013-01-15 20:00:00,37.6,5.7,30.30,SE,135,2.1,3.9,26,0.00,,,0.00,tws,2013-01-16 03:00:00,
2013-01-15 20:10:00,36.9,5.3,30.30,South,180,2.5,3.7,26,0.00,,,0.00,tws,2013-01-16 03:10:00,
2013-01-15 20:20:00,36.0,4.9,30.31,West,270,0.5,3.1,26,0.00,,,0.00,tws,2013-01-16 03:20:00,
2013-01-15 20:30:00,35.4,4.6,30.30,South,180,1.0,3.3,27,0.00,,,0.00,tws,2013-01-16 03:30:00,
2013-01-15 20:40:00,34.9,4.7,30.31,SW,225,1.4,4.8,27,0.00,,,0.00,tws,2013-01-16 03:40:00,
2013-01-15 20:50:00,34.7,5.0,30.30,SW,225,1.1,3.1,28,0.00,,,0.00,tws,2013-01-16 03:50:00,
2013-01-15 21:00:00,34.5,4.9,30.31,SSW,202,2.3,3.4,28,0.00,,,0.00,tws,2013-01-16 04:00:00,
2013-01-15 21:10:00,34.3,5.2,30.31,NNW,337,1.4,3.7,29,0.00,,,0.00,tws,2013-01-16 04:10:00,
2013-01-15 21:20:00,34.1,5.8,30.31,NNE,22,0.1,0.5,30,0.00,,,0.00,tws,2013-01-16 04:20:00,
2013-01-15 21:30:00,33.7,6.1,30.31,NW,315,2.1,4.5,31,0.00,,,0.00,tws,2013-01-16 04:30:00,
2013-01-15 21:40:00,33.5,6.4,30.30,North,0,4.9,6.1,31,0.00,,,0.00,tws,2013-01-16 04:40:00,
2013-01-15 21:50:00,33.5,6.7,30.30,WNW,292,3.9,6.2,32,0.00,,,0.00,tws,2013-01-16 04:50:00,
2013-01-15 22:10:00,33.2,6.9,30.30,WNW,292,3.0,5.0,32,0.00,,,0.00,tws,2013-01-16 05:10:00,
2013-01-15 22:20:00,32.9,6.6,30.30,WNW,292,3.0,4.4,32,0.00,,,0.00,tws,2013-01-16 05:20:00,
2013-01-15 22:30:00,32.7,6.5,30.31,NW,315,1.5,2.8,32,0.00,,,0.00,tws,2013-01-16 05:30:00,
2013-01-15 22:40:00,32.6,6.6,30.31,North,0,1.8,4.1,33,0.00,,,0.00,tws,2013-01-16 05:40:00,
2013-01-15 22:50:00,32.4,6.6,30.31,NE,45,1.7,3.0,33,0.00,,,0.00,tws,2013-01-16 05:50:00,
2013-01-15 23:00:00,32.2,6.6,30.32,West,270,0.0,0.4,33,0.00,,,0.00,tws,2013-01-16 06:00:00,
2013-01-15 23:10:00,31.9,6.5,30.31,South,180,0.6,3.3,34,0.00,,,0.00,tws,2013-01-16 06:10:00,
2013-01-15 23:20:00,31.6,6.6,30.32,SSW,202,0.0,0.0,34,0.00,,,0.00,tws,2013-01-16 06:20:00,
2013-01-15 23:30:00,31.4,6.3,30.31,SSW,202,0.5,2.6,34,0.00,,,0.00,tws,2013-01-16 06:30:00,
2013-01-15 23:40:00,31.4,6.7,30.31,SSE,157,0.8,2.3,34,0.00,,,0.00,tws,2013-01-16 06:40:00,
2013-01-15 23:50:00,31.9,6.5,30.31,South,180,4.0,6.0,34,0.00,,,0.00,tws,2013-01-16 06:50:00,